Regional Weather Roundup
Issued by NWS

Home | Current Version | Previous Version | Graphics & Text | Print | Product List | Glossary On
Versions: 1 2 3 4 5 6 7 8 9 10 11 12 13 14 15 16 17 18 19 20 21 22 23 24 25 26 27 28 29 30 31 32 33 34 35 36 37 38 39 40 41 42 43 44 45 46 47 48 49 50
000
ASUS45 KTFX 031904
RWRMT
MONTANA REGIONAL WEATHER ROUNDUP
NATIONAL WEATHER SERVICE GREAT FALLS MT
100 PM MDT THU SEP 03 2015

NOTE: "FAIR" INDICATES FEW OR NO CLOUDS BELOW 12000 FEET WITH NO
SIGNIFICANT WEATHER AND/OR OBSTRUCTIONS TO VISIBILITY.

MTZ001>007-043-032000-
WEST OF THE DIVIDE

CITY           SKY/WX    TMP DP  RH WIND       PRES   REMARKS
KALISPELL      CLOUDY    57  46  66 SE15      29.94S
MISSOULA       CLOUDY    52  46  80 NW5       29.98S
BUTTE          CLOUDY    54  39  57 NW5       29.96F
MULLAN PASS    PTSUNNY   42  38  85 N5        29.98F
DEER LODGE       N/A     59  39  47 CALM      29.97F
EUREKA           N/A     52  45  76 NW5       29.97S
HAMILTON         N/A     52  46  82 N6        29.97S
LIBBY            N/A     61  39  44 NW3       29.91F
$$

MTZ008-052>055-032000-
SOUTHWEST MONTANA

CITY           SKY/WX    TMP DP  RH WIND       PRES   REMARKS
BOZEMAN        MOSUNNY   71  41  33 N3        29.86F
DILLON           N/A     65  39  38 N8        29.88F
W YELLOWSTONE  MOSUNNY   70  32  24 SW23G32   29.98S
$$

MTZ009-010-012-014-046-048-049-054-032000-
EAST SLOPES AND CENTRAL MONTANA

CITY           SKY/WX    TMP DP  RH WIND       PRES   REMARKS
CUT BANK       CLOUDY    53  42  66 CALM      29.95F
GREAT FALLS    CLOUDY    59  42  53 N18G25    29.92F
MALMSTROM AFB  CLOUDY    61  41  48 N20       29.92F
HELENA         CLOUDY    63  39  41 VRB5      29.90F
$$

MTZ011-013-016-021-045-047-050-051-032000-
NORTH CENTRAL MONTANA

CITY           SKY/WX    TMP DP  RH WIND       PRES   REMARKS
HAVRE          CLOUDY    67  41  38 N10       29.89F
LEWISTOWN      SUNNY     70  37  29 N10G17    29.91F
N BAR RANCH      N/A     68  37  32 NE9       29.93F
CHINOOK          N/A     70  39  32 NW6       29.89S
FORT BENTON      N/A     64  39  39 NW10      29.92S
$$

MTZ017>020-022>027-061-062-032000-
NORTHEAST MONTANA

CITY           SKY/WX    TMP DP  RH WIND       PRES   REMARKS
GLASGOW        MOSUNNY   79  42  26 N14       29.80F
JORDAN           N/A     75  41  29 N12       29.83R
SIDNEY         MOSUNNY   84  45  24 NW17G25     N/A
WOLF POINT     PTSUNNY   81  44  27 NE16G26   29.76S
PLENTYWOOD       N/A     75  46  35 N22G31    29.76F
POPLAR           N/A     79  45  29 N17       29.74F
$$

MTZ028>42-056>058-032000-
SOUTHCENTRAL AND SOUTHEAST MONTANA

CITY           SKY/WX    TMP DP  RH WIND       PRES   REMARKS
BAKER          PTSUNNY   83  48  29 NW13      29.78F
BILLINGS       PTSUNNY   72  36  26 NE7       29.84F
LIVINGSTON     SUNNY     73  38  27 E22G29    29.84F
MILES CITY     CLOUDY    79  43  27 VRB7      29.78S
FORSYTH          N/A     79  39  24 E5        29.78F
$$

REGIONAL REPORTS...DAKOTAS

CITY           SKY/WX    TMP DP  RH WIND       PRES   REMARKS
WILLISTON      SUNNY     87  57  35 N16G25    29.71F
MINOT          SUNNY     90  65  43 SE8       29.63S HX  92
DICKINSON      MOSUNNY   88  54  31 NW14      29.71S
BISMARCK       MOSUNNY   94  61  33 S10       29.67F HX  94
GRAND FORKS    MOSUNNY   89  71  55 S24G33    29.72F HX  95
FARGO          SUNNY     91  71  51 SE21G29   29.77S HX  97
BUFFALO SD       N/A     86  46  24 NW13      29.71F
RAPID CITY     SUNNY     95  52  23 S8        29.77F HX  92
$$

REGIONAL REPORTS...WYOMING/IDAHO/WASHINGTON

CITY           SKY/WX    TMP DP  RH WIND       PRES   REMARKS
GILLETTE       PTSUNNY   83  40  21 CALM      29.87F
SHERIDAN       PTSUNNY   78  38  23 NW7       29.83F
BUFFALO WY     MOSUNNY   82  37  20 SE9       29.89F
CODY           CLOUDY    70  39  32 NE5       29.88F
YELLOWSTONE LA   N/A     68  36  30 VRB6G21   30.07F
IDAHO FALLS    MOSUNNY   74  40  29 SW12      29.90F
SALMON         CLOUDY    64  45  48 CALM      29.85F
BOISE          CLOUDY    63  43  48 NW16      29.93S
SPOKANE        MOSUNNY   60  34  37 SW12G17   29.95F
$$

REGIONAL REPORTS...ALBERTA

CITY           SKY/WX    TMP DP  RH WIND       PRES   REMARKS
$$

REGIONAL REPORTS...SASKATCHEWAN

CITY           SKY/WX    TMP DP  RH WIND       PRES   REMARKS
$$



USA.gov is the U.S. government's official web portal to all federal, state and local government web resources and services.